Temperature
21 20 21 21 24 25 24 23 24 24 24 23 22 23 23 23 22 21 18 18 17 17 17 17 17 17 17 17 17 17 18 18 17 17 17 18 17 17 17 17 18 17 17 17 18 18 18 18 18
20 21 21 23 25 24 23 24 23 23 23 22 22 22 23 22 20 19 18 18 17 17 17 17 17 17 17 17 17 17 17 17 17 17 17 17 17 17 17 17 17 17 17 17 17 17 17 17 17
21 21 22 24 24 24 23 24 24 23 22 22 22 22 22 21 19 18 18 18 17 17 17 17 17 17 17 17 17 17 17 17 17 17 17 17 17 17 17 17 17 17 17 17 17 17 17 17 17
20 21 23 25 24 24 24 24 24 23 23 22 23 22 21 19 19 18 18 18 17 17 17 17 17 17 17 17 17 17 17 17 17 17 17 17 17 17 17 17 17 17 17 17 17 17 17 17 17
21 23 24 24 23 24 24 24 23 24 23 23 23 22 21 18 18 18 18 18 17 17 17 17 17 17 17 17 17 17 17 17 17 17 17 17 17 17 17 17 17 17 17 17 17 17 17 17 17
22 24 24 24 23 23 24 23 24 24 23 23 22 22 20 18 18 18 18 18 17 17 17 17 17 17 17 17 17 17 17 17 17 17 17 17 17 17 17 17 17 17 17 17 17 17 17 17 17
24 24 24 24 23 23 24 23 24 24 24 23 22 22 21 19 18 18 18 18 17 17 17 17 17 17 17 17 17 17 17 17 17 17 17 17 17 17 17 16 17 17 17 17 17 17 17 17 17
22 25 24 24 23 23 24 23 23 23 23 22 22 22 21 19 18 18 18 18 17 17 17 17 17 17 17 17 17 17 17 17 17 17 17 17 16 16 16 16 16 16 16 17 17 17 16 16 16
22 24 24 24 24 24 24 23 23 22 22 22 21 21 21 19 18 18 18 18 17 17 17 17 17 17 17 17 17 17 17 17 16 17 17 16 16 16 16 16 16 16 16 16 16 16 16 16 16
23 24 24 24 24 24 24 23 23 23 23 22 21 20 19 19 19 19 19 18 18 18 17 17 17 17 17 16 16 16 16 16 16 16 16 16 16 16 16 16 16 16 16 16 16 16 16 16 16
24 24 23 23 23 23 23 23 23 24 24 23 22 21 19 19 19 19 19 19 18 18 17 17 17 17 17 16 16 16 16 16 16 16 16 16 16 16 16 16 16 16 16 16 16 16 16 16 15
24 23 23 23 22 23 23 23 23 23 23 22 22 21 20 19 19 19 19 19 18 18 17 17 17 17 17 17 16 16 16 16 16 16 16 16 16 16 16 16 15 15 15 15 15 15 15 15 15
23 23 23 22 22 22 23 23 23 22 22 21 21 20 20 20 20 19 19 19 18 18 17 17 17 17 17 17 16 16 16 16 16 16 15 15 15 16 15 15 15 15 15 15 15 15 15 15 15
23 23 23 23 23 22 23 23 22 22 21 21 21 20 20 20 20 20 19 19 18 18 18 17 17 17 17 17 16 16 16 16 16 15 15 15 15 15 15 15 15 15 15 15 15 15 15 15 15
22 23 23 23 23 23 23 23 23 22 21 21 21 20 20 20 20 19 19 19 19 18 18 17 17 17 17 16 16 16 16 15 15 15 15 15 15 15 15 15 15 15 15 15 15 15 15 15 15
24 24 23 23 23 23 23 22 23 21 21 21 21 20 20 19 19 19 19 19 19 18 18 18 17 17 17 16 16 16 16 15 15 15 15 15 15 15 15 15 14 14 14 14 14 14 14 14 14
24 23 23 23 24 23 23 22 22 21 21 21 21 21 20 20 19 19 19 19 18 18 18 18 17 17 17 16 16 16 16 15 15 15 15 15 15 15 15 15 14 14 14 14 14 14 14 14 14
23 23 23 23 23 23 23 22 22 21 21 21 21 21 20 20 19 19 19 18 18 18 18 18 17 17 17 16 16 16 15 15 15 15 15 15 15 15 14 14 14 14 14 14 14 14 14 14 14
23 23 23 23 23 23 22 22 22 21 21 21 21 21 21 20 20 19 19 18 18 18 18 17 17 17 17 16 16 16 15 15 15 15 15 15 15 14 14 14 14 14 14 14 14 14 14 14 14
23 23 23 23 23 23 22 22 22 22 21 20 21 21 20 20 20 19 18 18 18 18 17 17 17 17 16 16 16 16 16 15 15 15 15 15 14 14 14 14 14 14 14 14 14 14 14 14 14
23 23 23 22 22 23 22 22 22 22 21 20 20 20 20 19 19 19 18 18 17 17 17 17 17 17 16 16 16 15 15 15 15 15 15 14 14 14 14 14 14 14 14 14 14 13 13 13 13
22 23 22 22 22 22 22 22 22 22 21 21 20 19 19 19 19 18 18 17 17 17 17 17 16 16 16 16 16 15 15 15 15 15 14 14 14 14 14 14 14 14 13 13 13 13 13 13 13
22 22 22 22 22 22 22 22 22 22 21 21 20 19 18 18 18 17 17 17 17 17 16 16 16 16 16 16 16 15 15 15 15 14 14 14 14 14 14 14 13 13 13 13 13 13 13 13 13
22 22 22 22 23 22 22 22 22 22 21 21 20 19 18 17 17 17 16 16 16 16 16 16 16 16 16 15 15 15 15 15 15 14 14 14 14 14 14 13 13 13 13 13 13 13 13 13 13
22 22 22 22 22 22 22 21 21 21 20 20 19 18 17 17 17 16 16 16 16 16 16 15 15 15 15 15 15 15 15 15 14 14 14 14 14 13 13 13 13 13 13 13 13 13 13 12 12
22 22 21 21 21 22 21 21 21 20 19 19 18 18 17 16 16 16 15 15 15 15 15 15 15 15 15 15 15 15 14 14 14 14 14 14 13 13 13 13 13 13 13 13 13 13 13 12 12
22 22 22 21 21 21 21 21 20 20 19 19 18 17 17 16 16 15 15 15 15 15 15 15 15 15 15 14 14 14 14 14 14 14 14 13 13 13 13 13 13 13 13 13 13 13 12 12 12
21 22 21 21 20 20 21 21 21 20 19 19 18 18 17 16 16 15 15 15 15 15 14 14 14 14 14 14 14 14 14 13 13 13 13 13 13 13 13 13 13 13 13 12 12 12 12 12 12
20 20 21 21 20 20 20 21 21 20 20 19 18 17 17 16 15 15 14 14 14 14 14 14 14 14 14 14 14 13 13 13 13 13 13 13 13 13 13 13 13 13 12 12 12 12 12 12 12
20 21 21 20 20 20 20 20 20 20 19 19 18 17 16 16 15 15 14 14 14 14 14 14 14 14 13 13 13 13 13 13 13 13 12 12 12 12 12 12 12 12 12 12 12 12 12 12 11
Wind_Speed
2 1 2 2 2 3 6 5 4 4 4 5 5 4 5 6 5 5 3 3 4 5 6 7 6 7 8 8 8 8 9 10 9 9 9 9 9 8 8 8 8 8 8 7 7 7 7 8 8
1 1 2 2 1 4 6 5 6 6 5 5 5 5 5 6 6 5 4 4 5 6 6 7 7 7 8 8 9 9 9 10 10 10 10 10 9 9 8 8 8 8 8 7 7 8 8 8 8
1 2 1 0 2 4 6 6 7 6 5 3 3 4 4 5 4 4 4 5 6 6 6 8 7 8 8 9 9 9 9 10 10 10 10 10 10 10 9 8 7 7 8 8 8 8 8 9 9
2 1 1 3 8 7 6 7 6 6 5 3 4 5 5 5 3 5 6 6 7 7 7 9 7 8 8 9 9 9 9 9 9 9 10 10 10 10 9 9 8 8 8 9 9 10 10 10 10
1 1 3 6 7 6 6 5 4 4 4 4 5 6 6 5 6 7 6 6 7 7 7 9 8 9 8 8 8 8 9 9 9 9 9 9 9 10 10 10 9 9 10 10 10 11 11 11 11
1 1 4 7 7 6 5 4 4 5 6 5 5 6 5 5 6 6 6 6 6 7 7 8 9 8 8 8 8 8 8 9 8 8 9 9 9 10 11 11 12 12 12 11 11 11 11 11 11
1 2 4 7 7 6 4 3 4 4 5 4 3 4 5 5 6 7 7 6 6 6 6 6 7 8 8 8 8 9 9 9 9 9 9 9 9 10 10 10 11 12 12 12 12 11 11 11 11
0 3 6 5 6 5 4 4 3 3 4 4 2 3 5 7 7 8 7 6 6 5 5 5 6 5 6 7 8 7 8 8 8 9 9 8 8 9 9 10 11 11 12 12 12 12 12 11 11
1 3 5 5 5 5 5 5 4 3 4 4 3 4 6 10 10 9 7 6 5 5 4 4 4 4 4 5 6 6 7 7 6 7 7 4 6 7 8 12 11 11 12 12 12 12 11 10 11
1 3 4 3 3 4 5 4 4 5 5 5 6 6 7 10 10 9 8 7 6 6 5 4 4 3 4 4 4 4 5 5 4 5 6 5 6 7 8 10 10 11 11 11 11 9 7 5 6
2 3 4 4 4 4 4 3 3 4 3 4 5 7 9 9 9 7 7 6 6 6 5 4 3 3 4 4 4 3 4 4 4 5 5 5 5 5 5 5 6 7 6 7 7 5 6 6 6
3 3 3 3 4 3 3 3 3 3 2 2 4 6 9 9 8 7 6 6 6 5 5 4 4 4 4 4 4 3 3 3 3 4 5 4 3 4 4 4 5 5 5 5 5 4 6 6 6
4 3 3 3 3 3 3 3 2 2 2 2 4 6 7 7 7 7 6 6 6 6 5 4 4 4 4 4 3 3 3 3 4 3 3 4 3 3 4 4 4 5 4 4 4 4 5 5 6
3 3 3 3 3 3 3 3 2 2 3 4 5 5 6 6 6 6 6 6 6 6 6 5 5 4 4 3 3 3 3 3 3 3 3 3 3 3 3 4 4 4 4 4 4 4 4 4 5
4 4 3 3 3 3 3 3 2 3 4 4 5 5 5 5 5 6 6 6 6 6 6 6 6 5 4 4 3 3 2 2 2 2 2 3 3 3 3 3 3 3 4 4 4 4 3 4 4
4 5 4 3 3 3 5 3 1 2 4 4 4 4 4 5 5 6 6 5 5 6 6 6 6 6 5 4 3 3 2 2 2 2 2 2 2 3 3 2 2 3 3 3 3 2 3 3 3
5 4 4 3 2 3 4 3 1 2 3 3 4 4 4 4 5 6 6 6 6 6 6 6 7 6 6 5 3 3 2 2 2 2 1 1 1 2 2 2 2 2 2 2 2 2 2 2 3
4 4 4 3 1 3 4 4 2 3 4 4 4 4 4 4 5 5 6 6 6 6 6 6 6 6 6 5 3 3 2 2 2 1 2 1 1 1 2 1 2 2 1 1 1 2 1 2 1
4 5 5 3 2 3 4 4 3 3 3 4 5 5 4 4 3 3 4 5 5 6 6 6 6 6 5 5 5 4 4 3 3 2 2 2 2 2 2 1 2 1 1 1 1 1 1 1 1
6 7 6 3 2 4 4 4 4 3 4 4 4 4 4 3 3 2 4 4 5 6 6 6 6 6 6 5 5 4 4 3 3 2 2 2 2 2 2 2 2 2 1 1 1 1 0 1 1
7 7 6 5 4 5 5 6 5 3 3 3 3 4 3 3 3 2 3 4 4 5 6 5 6 6 6 6 5 4 4 3 3 3 3 3 3 3 2 2 2 2 2 2 1 1 1 1 1
6 4 6 7 7 5 6 6 4 4 3 3 3 2 2 2 2 1 1 2 3 4 5 6 6 6 6 7 6 6 5 5 5 4 3 3 4 3 3 3 3 3 2 2 2 2 2 2 1
4 3 6 8 8 8 8 8 4 4 4 2 1 1 1 1 1 1 1 1 1 2 3 4 5 6 6 6 7 7 6 5 4 4 4 4 4 3 3 3 3 3 3 3 2 2 3 2 2
3 4 5 6 8 9 7 8 4 3 3 2 1 0 1 1 1 1 1 1 1 1 2 3 4 5 6 6 7 8 7 7 6 6 5 4 4 4 4 4 4 3 3 3 3 3 4 3 3
5 6 5 6 6 6 3 6 4 1 1 2 1 1 0 0 0 1 2 2 1 1 2 3 3 5 6 6 6 7 8 8 7 6 6 5 4 4 5 5 4 4 4 4 4 4 4 4 4
6 7 6 5 6 5 4 6 3 2 1 2 2 1 1 0 1 1 1 1 1 0 1 2 4 4 5 6 6 6 6 6 6 6 5 6 5 5 5 5 5 5 4 4 4 4 4 4 4
5 6 6 7 8 8 5 4 4 4 4 2 2 1 0 0 1 1 1 1 1 0 1 2 3 4 5 5 5 5 5 5 5 6 5 5 5 4 5 5 5 5 5 5 5 4 4 4 4
4 4 5 6 6 7 7 7 5 6 5 3 2 1 0 1 1 1 1 1 1 1 1 2 3 4 4 5 5 4 5 5 5 4 5 5 5 5 5 6 5 5 5 5 5 5 5 5 4
4 5 6 6 7 7 8 4 1 3 3 3 3 2 1 1 1 1 1 1 1 1 1 2 2 3 3 4 5 5 5 5 5 4 5 5 5 5 5 6 6 6 5 5 5 5 5 5 5
6 7 8 8 8 8 9 6 0 2 3 3 3 2 2 2 1 1 1 1 1 1 2 1 2 2 3 3 4 5 5 5 5 5 5 4 5 5 6 5 6 6 6 6 6 6 6 6 6
Wind_Direction
232 229 224 240 204 106 84 82 88 93 76 67 68 69 67 49 34 68 78 89 78 82 91 102 79 75 72 71 75 82 82 82 80 79 79 77 76 76 81 83 84 90 92 90 90 91 89 86 83
301 254 235 251 191 115 91 93 93 80 96 100 84 75 72 67 58 86 104 98 97 92 90 84 78 77 75 71 74 80 82 79 77 78 78 77 77 77 76 77 80 84 87 86 84 86 89 86 83
203 268 287 190 87 88 104 101 99 96 108 109 94 66 54 66 79 99 105 117 111 99 95 88 80 78 76 72 71 74 81 80 77 75 74 73 73 73 71 71 75 84 89 86 87 87 91 87 84
237 230 195 104 94 79 101 113 111 116 107 95 107 91 81 62 81 102 114 122 112 103 100 93 83 79 76 71 69 70 76 80 77 73 71 68 69 69 66 64 64 79 90 86 85 85 87 87 84
252 251 125 110 97 97 104 105 120 114 106 107 106 99 95 81 94 109 120 122 113 106 100 97 87 79 72 69 70 71 73 74 76 74 71 68 67 65 63 60 67 84 92 89 87 86 85 83 81
212 198 140 122 113 112 112 114 118 103 106 109 110 107 98 108 120 123 125 121 113 111 109 106 102 87 76 69 67 70 72 71 70 71 71 70 69 68 65 63 72 84 87 87 86 84 83 81 77
139 124 126 128 128 126 115 113 114 105 107 100 109 109 117 130 131 136 133 125 119 117 117 114 114 110 104 85 72 70 73 72 70 70 69 70 73 70 68 68 71 78 83 84 83 82 80 78 75
39 137 136 142 144 130 125 124 103 90 93 103 122 112 129 145 144 141 137 133 128 127 125 119 110 104 101 98 86 77 75 74 75 74 72 74 82 81 76 75 72 74 78 82 83 82 81 79 75
206 160 150 147 148 137 138 139 121 117 126 125 118 95 113 138 146 146 145 145 139 136 133 127 119 111 104 95 100 100 95 81 92 94 86 85 79 77 80 67 71 72 75 79 80 82 83 85 84
167 154 138 130 142 145 148 147 144 156 146 139 132 122 128 146 155 157 157 156 153 152 147 138 128 119 113 102 103 94 93 91 81 80 82 75 72 70 72 81 74 73 77 82 80 82 91 84 81
118 129 128 134 138 148 151 155 167 172 157 152 151 149 150 158 164 167 166 161 158 155 150 150 141 127 119 117 106 98 93 91 79 72 77 74 74 78 77 82 88 81 80 78 85 84 65 66 65
134 124 144 148 152 165 169 172 178 185 157 121 139 151 160 169 172 176 174 170 165 162 163 158 155 143 133 123 114 106 99 95 86 75 73 77 72 69 72 73 73 70 70 71 70 65 63 60 61
149 141 145 155 168 183 186 191 191 202 201 153 148 160 171 176 178 179 178 176 174 171 171 173 167 156 142 129 120 116 102 94 95 82 72 75 77 76 75 77 76 70 70 74 69 67 61 55 54
133 142 153 169 179 185 186 191 207 227 195 179 177 178 183 185 189 184 184 188 187 184 178 175 177 171 159 147 141 126 118 112 97 93 87 82 84 84 82 82 78 74 70 69 75 72 69 60 59
155 157 160 173 187 185 191 196 216 219 196 189 189 188 189 195 197 199 194 196 194 191 187 180 182 180 172 164 152 136 133 127 113 107 106 94 87 92 94 88 83 77 76 76 76 79 73 70 69
178 190 186 170 189 207 222 224 205 178 184 197 203 198 200 208 215 209 203 203 200 195 192 184 184 187 180 172 164 154 144 138 132 121 113 108 103 99 99 95 87 78 79 76 78 75 83 80 67
197 199 196 192 197 224 226 240 244 190 203 212 215 213 211 212 221 218 212 209 205 201 196 188 188 191 185 180 173 170 159 160 158 149 144 136 125 125 117 106 100 94 86 83 88 83 73 79 72
202 213 221 226 198 226 229 245 252 238 234 231 225 223 221 216 224 217 210 209 206 204 200 197 190 191 184 183 184 177 179 177 176 175 171 163 175 173 145 145 138 120 112 102 104 107 91 62 63
233 233 238 253 249 247 242 253 257 245 238 239 234 228 225 225 221 211 205 207 202 201 201 197 198 192 188 188 194 191 192 191 186 188 189 184 196 192 156 170 151 137 132 127 127 101 102 68 14
232 239 247 250 228 254 252 262 260 251 235 238 244 240 236 237 228 209 207 206 207 203 204 199 199 196 195 196 199 198 195 198 189 185 187 190 195 198 183 184 170 166 156 162 142 128 2 26 320
242 250 254 262 265 239 254 258 238 223 219 226 239 242 242 241 248 231 215 215 212 209 206 202 200 198 198 196 196 191 188 192 186 188 194 203 206 208 208 206 196 196 197 196 199 198 225 284 302
246 258 254 251 254 254 250 269 242 213 210 223 235 233 240 262 271 283 256 224 218 214 207 204 200 200 196 193 195 197 200 199 202 196 189 198 205 213 214 216 212 212 222 214 216 213 227 252 274
260 266 251 252 259 261 251 259 248 212 223 225 231 236 256 279 295 323 313 233 216 210 203 206 202 200 195 194 192 199 206 209 204 199 195 201 203 213 216 217 218 218 224 230 228 234 240 243 268
219 230 233 236 247 251 251 251 253 224 233 216 223 1 358 355 9 38 53 63 77 161 183 194 202 203 200 197 198 204 208 209 206 205 206 206 207 213 216 215 218 223 227 232 232 234 237 249 260
224 249 247 236 233 247 237 248 246 170 202 237 245 247 8 13 22 30 40 56 62 110 193 199 198 205 204 205 208 211 213 212 213 214 214 214 215 217 219 218 222 228 235 237 236 237 240 239 244
233 246 259 268 267 270 240 243 221 163 210 227 206 182 142 5 357 22 26 36 43 94 212 211 202 206 205 208 213 214 214 215 220 221 222 219 220 222 223 223 226 231 234 233 229 234 234 240 240
231 236 265 272 274 269 246 232 228 207 218 213 184 146 120 359 358 357 351 351 0 330 262 234 212 205 207 208 210 207 212 217 221 223 222 222 223 224 219 222 225 225 227 230 228 227 229 236 241
263 236 236 250 264 263 258 251 236 207 218 217 210 206 274 317 352 4 353 331 323 310 274 235 213 206 205 207 207 203 209 213 214 217 221 222 224 224 221 219 220 222 225 226 227 229 234 233 232
222 223 236 249 258 268 272 261 267 228 216 228 233 235 254 270 317 344 335 317 314 327 287 235 218 216 210 209 209 206 208 213 215 214 221 223 222 220 222 221 220 221 223 223 223 229 228 235 236
255 246 243 254 254 255 270 270 180 230 238 248 254 262 264 262 270 283 305 305 307 334 318 272 231 222 222 220 212 206 208 208 214 216 221 223 221 222 223 221 223 224 224 224 228 232 232 236 241
Height
1506 1506 1506 1507 1506 1506 1511 1513 1511 1512 1513 1516 1516 1515 1516 1517 1519 1526 1526 1523 1522 1521 1519 1520 1520 1521 1521 1521 1520 1520 1520 1519 1519 1518 1518 1518 1517 1516 1516 1515 1515 1515 1515 1516 1516 1516 1516 1517 1517
1507 1507 1508 1508 1504 1510 1516 1512 1513 1514 1517 1518 1518 1518 1518 1521 1523 1525 1525 1524 1524 1524 1523 1523 1522 1522 1523 1522 1522 1522 1521 1521 1521 1520 1519 1519 1518 1518 1517 1516 1516 1516 1516 1516 1517 1517 1517 1517 1518
1507 1507 1509 1505 1506 1510 1516 1513 1514 1517 1518 1519 1519 1520 1521 1524 1526 1526 1526 1526 1526 1526 1526 1525 1524 1525 1525 1524 1524 1523 1523 1523 1522 1522 1521 1521 1520 1519 1518 1517 1516 1516 1516 1517 1517 1518 1518 1518 1519
1508 1510 1509 1506 1511 1512 1512 1513 1516 1517 1519 1520 1520 1521 1524 1527 1527 1528 1527 1528 1528 1528 1528 1527 1527 1527 1526 1526 1526 1526 1525 1525 1524 1524 1523 1522 1521 1521 1519 1517 1515 1514 1515 1517 1518 1519 1519 1519 1520
1509 1509 1507 1510 1513 1514 1513 1515 1517 1516 1518 1520 1521 1522 1526 1528 1528 1528 1528 1529 1530 1530 1530 1529 1528 1528 1528 1528 1528 1527 1527 1526 1526 1525 1525 1524 1523 1522 1520 1517 1513 1512 1515 1517 1519 1520 1520 1521 1521
1511 1508 1509 1514 1515 1515 1515 1517 1518 1518 1519 1521 1522 1523 1527 1529 1529 1530 1530 1531 1531 1531 1531 1531 1530 1530 1530 1530 1530 1529 1529 1528 1528 1527 1527 1526 1525 1524 1522 1520 1516 1515 1517 1520 1521 1522 1522 1523 1523
1511 1508 1511 1513 1516 1516 1517 1518 1518 1519 1520 1522 1524 1524 1528 1530 1530 1531 1531 1532 1532 1533 1533 1534 1534 1533 1532 1532 1531 1531 1531 1530 1530 1529 1528 1528 1527 1526 1525 1523 1521 1521 1522 1522 1523 1524 1524 1525 1524
1511 1510 1512 1514 1516 1517 1518 1520 1521 1521 1522 1525 1525 1525 1528 1531 1531 1531 1532 1533 1534 1534 1535 1535 1535 1535 1535 1534 1533 1533 1533 1532 1531 1531 1530 1530 1529 1529 1528 1527 1525 1525 1525 1526 1526 1526 1526 1526 1526
1512 1511 1513 1514 1516 1517 1519 1520 1522 1524 1524 1526 1526 1527 1529 1530 1531 1532 1533 1534 1534 1535 1536 1536 1536 1536 1536 1536 1535 1535 1534 1534 1533 1533 1532 1532 1532 1532 1531 1530 1529 1528 1528 1528 1528 1528 1528 1528 1528
1512 1511 1514 1514 1515 1516 1519 1520 1522 1523 1524 1526 1527 1529 1529 1530 1531 1533 1533 1534 1535 1536 1536 1537 1537 1537 1538 1537 1537 1537 1536 1536 1536 1535 1535 1534 1534 1533 1533 1532 1531 1531 1531 1530 1530 1530 1530 1531 1530
1512 1512 1514 1516 1518 1518 1519 1521 1522 1522 1522 1524 1526 1528 1530 1531 1532 1533 1534 1535 1535 1536 1537 1537 1538 1538 1538 1538 1538 1538 1538 1537 1537 1537 1536 1536 1535 1535 1535 1534 1534 1533 1533 1533 1532 1533 1533 1533 1532
1513 1515 1516 1517 1519 1520 1520 1521 1522 1523 1524 1525 1526 1528 1529 1530 1532 1533 1534 1535 1536 1537 1537 1537 1538 1539 1539 1539 1539 1539 1539 1539 1538 1538 1538 1537 1537 1537 1536 1536 1535 1535 1535 1535 1535 1534 1535 1535 1534
1514 1516 1517 1519 1520 1520 1521 1521 1522 1523 1525 1526 1527 1528 1529 1530 1532 1533 1534 1535 1536 1537 1537 1537 1538 1539 1540 1540 1539 1540 1540 1540 1540 1539 1539 1539 1538 1538 1538 1537 1537 1537 1537 1536 1536 1537 1536 1536 1536
1515 1517 1517 1518 1519 1520 1520 1521 1522 1524 1525 1526 1527 1527 1529 1530 1531 1532 1534 1535 1536 1536 1537 1537 1538 1539 1540 1540 1540 1540 1540 1540 1540 1540 1540 1540 1539 1539 1539 1539 1538 1538 1538 1538 1538 1538 1538 1537 1537
1517 1516 1517 1518 1518 1519 1520 1520 1521 1523 1524 1525 1526 1527 1528 1529 1530 1531 1533 1534 1535 1536 1537 1538 1538 1539 1540 1540 1541 1541 1541 1541 1541 1541 1541 1541 1541 1541 1540 1540 1540 1540 1539 1540 1539 1539 1539 1539 1538
1515 1515 1517 1516 1517 1518 1520 1522 1520 1522 1523 1524 1525 1526 1527 1528 1530 1531 1532 1533 1534 1535 1536 1537 1537 1539 1539 1540 1540 1541 1541 1541 1541 1541 1541 1541 1541 1542 1541 1541 1541 1541 1540 1540 1540 1540 1540 1540 1539
1513 1515 1517 1516 1516 1516 1517 1519 1520 1522 1522 1523 1524 1524 1526 1527 1528 1529 1530 1531 1532 1534 1535 1536 1537 1538 1539 1539 1540 1540 1541 1541 1541 1541 1541 1542 1542 1542 1542 1541 1541 1542 1541 1541 1541 1541 1541 1541 1540
1515 1515 1515 1516 1515 1516 1517 1518 1519 1520 1521 1521 1522 1522 1523 1525 1526 1527 1528 1529 1531 1532 1533 1534 1536 1537 1538 1538 1539 1540 1540 1541 1541 1541 1541 1541 1542 1542 1542 1542 1542 1542 1542 1541 1542 1541 1541 1541 1541
1512 1514 1515 1514 1514 1516 1516 1516 1516 1518 1519 1519 1520 1520 1521 1523 1524 1525 1526 1527 1529 1530 1531 1532 1534 1535 1536 1537 1537 1538 1539 1540 1540 1541 1541 1541 1541 1542 1542 1542 1542 1542 1542 1542 1542 1542 1541 1541 1541
1513 1514 1514 1514 1514 1515 1515 1515 1514 1516 1517 1518 1518 1518 1519 1521 1522 1523 1524 1525 1526 1527 1529 1530 1531 1532 1534 1535 1536 1537 1538 1539 1539 1540 1540 1540 1540 1541 1541 1541 1541 1541 1541 1541 1541 1541 1541 1540 1540
1513 1514 1513 1515 1514 1513 1514 1514 1512 1513 1515 1516 1517 1518 1518 1519 1520 1521 1522 1523 1524 1525 1526 1527 1529 1530 1531 1532 1534 1535 1536 1537 1538 1538 1538 1539 1539 1540 1540 1540 1540 1540 1541 1541 1540 1540 1540 1540 1540
1513 1511 1513 1514 1514 1513 1513 1515 1508 1509 1512 1514 1515 1516 1517 1518 1519 1520 1520 1521 1521 1522 1523 1525 1526 1527 1529 1530 1531 1533 1534 1535 1535 1536 1537 1537 1538 1538 1538 1539 1539 1539 1539 1539 1539 1539 1539 1539 1539
1511 1512 1512 1511 1511 1512 1509 1512 1507 1506 1510 1512 1514 1515 1516 1517 1518 1518 1518 1519 1519 1520 1521 1522 1523 1525 1526 1527 1528 1530 1532 1533 1534 1535 1535 1536 1536 1537 1537 1537 1538 1538 1538 1538 1538 1538 1538 1538 1538
1512 1512 1510 1509 1508 1515 1509 1510 1509 1506 1508 1510 1512 1514 1515 1516 1517 1517 1517 1517 1517 1518 1518 1519 1520 1522 1523 1524 1526 1527 1529 1530 1531 1532 1533 1534 1534 1535 1535 1535 1536 1536 1536 1537 1536 1537 1537 1537 1536
1510 1511 1515 1515 1514 1511 1506 1509 1509 1506 1508 1510 1512 1514 1515 1515 1516 1516 1516 1515 1515 1516 1516 1517 1517 1519 1520 1522 1523 1524 1526 1527 1529 1530 1531 1532 1532 1532 1533 1533 1534 1534 1534 1535 1535 1535 1535 1535 1535
1508 1509 1517 1522 1516 1508 1507 1508 1505 1507 1509 1511 1512 1513 1514 1514 1514 1514 1514 1514 1514 1514 1514 1514 1515 1516 1517 1518 1520 1521 1523 1524 1526 1527 1528 1529 1529 1530 1530 1531 1531 1532 1532 1532 1532 1533 1533 1533 1533
1508 1508 1507 1510 1510 1513 1505 1504 1505 1506 1507 1509 1510 1512 1513 1513 1513 1513 1512 1512 1512 1512 1512 1512 1512 1513 1514 1516 1517 1518 1519 1521 1522 1524 1525 1525 1526 1527 1527 1528 1528 1529 1529 1530 1530 1530 1530 1530 1530
1507 1506 1508 1512 1518 1515 1506 1503 1501 1502 1504 1506 1508 1510 1511 1512 1512 1511 1511 1511 1511 1511 1510 1510 1510 1510 1511 1513 1514 1515 1516 1518 1519 1520 1521 1522 1523 1524 1524 1525 1525 1526 1526 1527 1527 1527 1527 1528 1528
1509 1509 1508 1508 1509 1513 1511 1503 1495 1499 1502 1504 1506 1508 1509 1510 1510 1510 1510 1509 1509 1509 1508 1508 1508 1508 1509 1510 1512 1512 1513 1515 1516 1516 1517 1518 1519 1520 1521 1521 1522 1522 1523 1524 1524 1524 1524 1525 1525
1507 1505 1506 1511 1510 1508 1507 1504 1496 1499 1501 1503 1505 1507 1508 1509 1509 1509 1508 1508 1507 1507 1506 1506 1506 1506 1507 1508 1509 1509 1510 1511 1512 1513 1514 1515 1516 1516 1517 1518 1518 1519 1520 1520 1521 1521 1521 1521 1522